User: anonymous   Login
Location: Gradaro
(45.0833°N, 10.8833°E)
Time: 16:04:08
(UTC+00:00)
Language:

FENGYUN 1C DEB - Orbit

View from above orbital plane
View from above orbital plane
View from above satellite
View from above satellite

Ground track
Ground track

The orbit data is extracted from the following two-line orbital elements,

1 30047U 99025NY  21175.01032174  .00000182  00000-0  17507-3 0  9997
2 30047  99.9337 203.2753 0131039 328.7774  87.3312 13.90475187732116
Epoch (UTC): 24 June 2021 00:14:51
Eccentricity: 0.0131039
inclination: 99.9337°
perigee height: 831 km
apogee height: 1022 km
right ascension of ascending node: 203.2753°
argument of perigee: 328.7774°
revolutions per day: 13.90475187
mean anomaly at epoch: 87.3312°
orbit number at epoch: 73211

The dashed part of the orbit path shows where the satellite is in the earth's shadow,  

DLR